| time (UTC) | temp F | wind direction | speed knots | gust knots | rain 1hr in | rain 24hr in | rain mn in | humidity % | barometer mb |
| 20260508044122 | 54 | 242 | 0.0 | 0.0 | 0.00 | 0.00 | 0.00 | 75 | 1018.4 |
| 20260508043652 | 55 | 242 | 0.0 | 0.0 | 0.00 | 0.00 | 0.00 | 75 | 1018.5 |
| 20260508043152 | 55 | 242 | 0.0 | 0.0 | 0.00 | 0.00 | 0.00 | 74 | 1018.4 |
| 20260508042652 | 55 | 242 | 0.0 | 0.0 | 0.00 | 0.00 | 0.00 | 72 | 1018.4 |
| 20260508042152 | 55 | 242 | 0.0 | 0.0 | 0.00 | 0.00 | 0.00 | 64 | 1018.2 |
| 20260508041652 | 55 | 242 | 0.0 | 0.0 | 0.00 | 0.00 | 0.00 | 64 | 1018.1 |
| 20260508041152 | 55 | 242 | 0.0 | 0.0 | 0.00 | 0.00 | 0.00 | 61 | 1018.0 |
| 20260508040652 | 55 | 242 | 0.0 | 0.0 | 0.00 | 0.00 | 0.00 | 65 | 1017.8 |
| 20260508040152 | 55 | 241 | 0.0 | 0.0 | 0.00 | 0.00 | 0.00 | 66 | 1017.8 |
| 20260508035652 | 55 | 241 | 0.0 | 0.0 | 0.00 | 0.00 | 0.00 | 67 | 1017.6 |
| 20260508035152 | 55 | 241 | 0.0 | 0.0 | 0.00 | 0.00 | 0.00 | 66 | 1017.5 |
| 20260508034652 | 55 | 241 | 0.0 | 0.0 | 0.00 | 0.00 | 0.00 | 68 | 1017.5 |
| 20260508034152 | 55 | 241 | 0.0 | 0.0 | 0.00 | 0.00 | 0.00 | 71 | 1017.5 |
| 20260508033651 | 55 | 240 | 0.0 | 0.0 | 0.00 | 0.00 | 0.00 | 77 | 1017.3 |
| 20260508033152 | 56 | 238 | 0.0 | 0.0 | 0.00 | 0.00 | 0.00 | 79 | 1017.4 |
| 20260508032652 | 57 | 238 | 0.0 | 0.0 | 0.00 | 0.00 | 0.00 | 80 | 1017.5 |
| 20260508032151 | 57 | 238 | 0.0 | 0.0 | 0.00 | 0.00 | 0.00 | 80 | 1017.5 |
| 20260508031651 | 58 | 238 | 0.0 | 0.0 | 0.00 | 0.00 | 0.00 | 79 | 1017.5 |
| 20260508031151 | 59 | 238 | 0.0 | 0.0 | 0.00 | 0.00 | 0.00 | 79 | 1017.8 |
| 20260508030651 | 59 | 238 | 0.0 | 0.0 | 0.00 | 0.00 | 0.00 | 79 | 1017.8 |
| 20260508030151 | 60 | 238 | 0.0 | 0.0 | 0.00 | 0.00 | 0.00 | 78 | 1017.7 |
| 20260508024651 | 61 | 234 | 0.0 | 0.0 | 0.00 | 0.00 | 0.00 | 77 | 1016.8 |
| 20260508023651 | 62 | 234 | 0.0 | 0.0 | 0.00 | 0.00 | 0.00 | 76 | 1017.1 |
| 20260508023151 | 63 | 234 | 0.0 | 0.0 | 0.00 | 0.00 | 0.00 | 75 | 1017.1 |
| 20260508022650 | 64 | 234 | 0.0 | 0.0 | 0.00 | 0.00 | 0.00 | 74 | 1017.2 |
| 20260508022150 | 64 | 234 | 0.0 | 0.0 | 0.00 | 0.00 | 0.00 | 73 | 1017.1 |
| 20260508021651 | 65 | 234 | 0.0 | 0.9 | 0.00 | 0.00 | 0.00 | 71 | 1017.1 |
| 20260508021150 | 65 | 234 | 0.0 | 4.3 | 0.00 | 0.00 | 0.00 | 72 | 1017.1 |
| 20260508020650 | 66 | 235 | 0.0 | 4.3 | 0.00 | 0.00 | 0.00 | 71 | 1017.4 |
| 20260508020150 | 66 | 245 | 1.7 | 2.6 | 0.00 | 0.00 | 0.00 | 70 | 1017.3 |
| 20260508015650 | 67 | 245 | 0.0 | 0.9 | 0.00 | 0.00 | 0.00 | 70 | 1015.7 |
| 20260508015150 | 67 | 245 | 0.0 | 1.7 | 0.00 | 0.00 | 0.00 | 69 | 1015.7 |
| 20260508014650 | 67 | 245 | 0.0 | 4.3 | 0.00 | 0.00 | 0.00 | 69 | 1015.7 |
| 20260508014150 | 68 | 245 | 0.9 | 4.3 | 0.00 | 0.00 | 0.00 | 68 | 1016.1 |
| 20260508013650 | 68 | 247 | 4.3 | 5.2 | 0.00 | 0.00 | 0.00 | 68 | 1016.1 |
| 20260508013150 | 68 | 234 | 1.7 | 6.1 | 0.00 | 0.00 | 0.00 | 67 | 1015.9 |
| 20260508012650 | 68 | 206 | 2.6 | 6.1 | 0.00 | 0.00 | 0.00 | 67 | 1015.9 |
| 20260508012150 | 69 | 242 | 3.5 | 6.1 | 0.00 | 0.00 | 0.00 | 66 | 1016.0 |
| 20260508011650 | 69 | 237 | 4.3 | 7.8 | 0.00 | 0.00 | 0.00 | 66 | 1016.0 |
| 20260508011150 | 69 | 215 | 6.1 | 7.8 | 0.00 | 0.00 | 0.00 | 65 | 1016.0 |
| 20260508010650 | 70 | 260 | 2.6 | 8.7 | 0.00 | 0.00 | 0.00 | 65 | 1016.2 |
| 20260508010150 | 70 | 255 | 7.0 | 8.7 | 0.00 | 0.00 | 0.00 | 64 | 1016.3 |
| 20260508005650 | 71 | 262 | 5.2 | 8.7 | 0.00 | 0.00 | 0.00 | 63 | 1015.9 |
| 20260508005149 | 71 | 220 | 3.5 | 8.7 | 0.00 | 0.00 | 0.00 | 62 | 1015.8 |
| 20260508004650 | 71 | 244 | 7.0 | 8.7 | 0.00 | 0.00 | 0.00 | 62 | 1015.7 |
| 20260508004150 | 72 | 229 | 3.5 | 8.7 | 0.00 | 0.00 | 0.00 | 60 | 1015.7 |
| 20260508003149 | 72 | 238 | 1.7 | 9.6 | 0.00 | 0.00 | 0.00 | 60 | 1015.7 |
| 20260508002649 | 73 | 246 | 1.7 | 9.6 | 0.00 | 0.00 | 0.00 | 59 | 1016.0 |
| 20260508001649 | 73 | 211 | 7.8 | 8.7 | 0.00 | 0.00 | 0.00 | 58 | 1015.9 |
| 20260508001150 | 73 | 246 | 1.7 | 8.7 | 0.00 | 0.00 | 0.00 | 58 | 1015.9 |
| 20260508000649 | 74 | 235 | 4.3 | 8.7 | 0.00 | 0.00 | 0.00 | 58 | 1015.9 |
| 20260508000149 | 74 | 267 | 1.7 | 8.7 | 0.00 | 0.00 | 0.00 | 57 | 1015.9 |
| 20260507235649 | 75 | 236 | 8.7 | 8.7 | 0.00 | 0.00 | 0.00 | 56 | 1016.1 |
| 20260507235149 | 76 | 235 | 5.2 | 8.7 | 0.00 | 0.00 | 0.00 | 55 | 1016.1 |
| 20260507234649 | 76 | 240 | 2.6 | 8.7 | 0.00 | 0.00 | 0.00 | 54 | 1016.0 |
| 20260507234149 | 76 | 238 | 0.0 | 9.6 | 0.00 | 0.00 | 0.00 | 55 | 1016.0 |
| 20260507233149 | 77 | 198 | 8.7 | 8.7 | 0.00 | 0.00 | 0.00 | 54 | 1016.4 |
| 20260507232149 | 77 | 235 | 4.3 | 10.4 | 0.00 | 0.00 | 0.00 | 52 | 1016.4 |
| 20260507230149 | 78 | 234 | 2.6 | 10.4 | 0.00 | 0.00 | 0.00 | 52 | 1016.6 |
| 20260507225649 | 78 | 217 | 3.5 | 12.2 | 0.00 | 0.00 | 0.00 | 52 | 1016.5 |
| 20260507225148 | 77 | 217 | 4.3 | 12.2 | 0.00 | 0.00 | 0.00 | 52 | 1016.2 |
| 20260507224648 | 77 | 215 | 2.6 | 9.6 | 0.00 | 0.00 | 0.00 | 51 | 1016.3 |
| 20260507224148 | 78 | 225 | 2.6 | 10.4 | 0.00 | 0.00 | 0.00 | 48 | 1016.5 |
| 20260507223649 | 78 | 213 | 2.6 | 10.4 | 0.00 | 0.00 | 0.00 | 49 | 1016.5 |
| 20260507222648 | 78 | 261 | 7.8 | 10.4 | 0.00 | 0.00 | 0.00 | 49 | 1016.5 |
| 20260507222148 | 78 | 325 | 0.0 | 9.6 | 0.00 | 0.00 | 0.00 | 47 | 1016.5 |
| 20260507221148 | 78 | 215 | 0.9 | 9.6 | 0.00 | 0.00 | 0.00 | 47 | 1016.5 |
| 20260507220148 | 78 | 226 | 1.7 | 7.8 | 0.00 | 0.00 | 0.00 | 46 | 1016.7 |
| 20260507215648 | 78 | 269 | 0.9 | 10.4 | 0.00 | 0.00 | 0.00 | 44 | 1016.7 |
| 20260507215148 | 79 | 245 | 4.3 | 10.4 | 0.00 | 0.00 | 0.00 | 46 | 1016.9 |
| 20260507214648 | 79 | 240 | 3.5 | 9.6 | 0.00 | 0.00 | 0.00 | 44 | 1016.9 |
| 20260507214147 | 80 | 220 | 5.2 | 10.4 | 0.00 | 0.00 | 0.00 | 45 | 1017.1 |
| 20260507213648 | 80 | 263 | 5.2 | 10.4 | 0.00 | 0.00 | 0.00 | 45 | 1017.2 |
| 20260507213147 | 80 | 230 | 2.6 | 8.7 | 0.00 | 0.00 | 0.00 | 45 | 1017.3 |
| 20260507212647 | 80 | 252 | 2.6 | 9.6 | 0.00 | 0.00 | 0.00 | 45 | 1017.2 |
| 20260507212147 | 80 | 261 | 5.2 | 9.6 | 0.00 | 0.00 | 0.00 | 45 | 1017.2 |
| 20260507211648 | 80 | 261 | 2.6 | 7.0 | 0.00 | 0.00 | 0.00 | 45 | 1017.3 |
| 20260507211147 | 79 | 231 | 5.2 | 10.4 | 0.00 | 0.00 | 0.00 | 47 | 1017.2 |
| 20260507210648 | 79 | 177 | 2.6 | 10.4 | 0.00 | 0.00 | 0.00 | 45 | 1017.1 |
| 20260507205647 | 80 | 347 | 0.0 | 9.6 | 0.00 | 0.00 | 0.00 | 44 | 1017.3 |
| 20260507205147 | 80 | 248 | 0.9 | 9.6 | 0.00 | 0.00 | 0.00 | 45 | 1017.5 |
| 20260507204647 | 80 | 65 | 1.7 | 7.0 | 0.00 | 0.00 | 0.00 | 44 | 1017.4 |
| 20260507204147 | 80 | 233 | 2.6 | 7.0 | 0.00 | 0.00 | 0.00 | 45 | 1017.6 |
| 20260507203647 | 79 | 115 | 1.7 | 6.1 | 0.00 | 0.00 | 0.00 | 47 | 1017.3 |
| 20260507203147 | 79 | 207 | 0.9 | 7.0 | 0.00 | 0.00 | 0.00 | 46 | 1017.3 |
| 20260507202647 | 79 | 248 | 2.6 | 7.0 | 0.00 | 0.00 | 0.00 | 47 | 1017.4 |
| 20260507202147 | 79 | 274 | 0.0 | 5.2 | 0.00 | 0.00 | 0.00 | 45 | 1017.4 |
| 20260507201147 | 79 | 348 | 1.7 | 10.4 | 0.00 | 0.00 | 0.00 | 45 | 1017.6 |
| 20260507200647 | 79 | 244 | 3.5 | 10.4 | 0.00 | 0.00 | 0.00 | 47 | 1017.5 |
| 20260507200147 | 79 | 212 | 4.3 | 9.6 | 0.00 | 0.00 | 0.00 | 47 | 1017.4 |
| 20260507195147 | 79 | 203 | 0.0 | 8.7 | 0.00 | 0.00 | 0.00 | 45 | 1017.9 |
| 20260507194647 | 79 | 213 | 1.7 | 8.7 | 0.00 | 0.00 | 0.00 | 46 | 1018.0 |
| 20260507194146 | 79 | 242 | 4.3 | 8.7 | 0.00 | 0.00 | 0.00 | 46 | 1018.0 |
| 20260507193646 | 78 | 273 | 0.9 | 9.6 | 0.00 | 0.00 | 0.00 | 45 | 1017.7 |
| 20260507192647 | 78 | 192 | 2.6 | 9.6 | 0.00 | 0.00 | 0.00 | 45 | 1017.8 |
| 20260507192147 | 78 | 218 | 2.6 | 8.7 | 0.00 | 0.00 | 0.00 | 44 | 1017.9 |
| 20260507191646 | 78 | 227 | 2.6 | 8.7 | 0.00 | 0.00 | 0.00 | 46 | 1017.8 |
| 20260507191146 | 78 | 245 | 3.5 | 8.7 | 0.00 | 0.00 | 0.00 | 44 | 1017.8 |
| 20260507190646 | 78 | 211 | 3.5 | 8.7 | 0.00 | 0.00 | 0.00 | 45 | 1017.9 |
| 20260507190147 | 79 | 212 | 5.2 | 7.8 | 0.00 | 0.00 | 0.00 | 46 | 1018.4 |
| 20260507184646 | 78 | 207 | 7.0 | 9.6 | 0.00 | 0.00 | 0.00 | 47 | 1018.3 |
| 20260507184146 | 78 | 231 | 2.6 | 8.7 | 0.00 | 0.00 | 0.00 | 47 | 1018.4 |
| 20260507183646 | 78 | 267 | 3.5 | 8.7 | 0.00 | 0.00 | 0.00 | 44 | 1018.3 |
| 20260507183146 | 78 | 174 | 0.9 | 7.8 | 0.00 | 0.00 | 0.00 | 42 | 1018.4 |
| 20260507182646 | 78 | 236 | 2.6 | 8.7 | 0.00 | 0.00 | 0.00 | 39 | 1018.2 |
| 20260507182146 | 79 | 55 | 0.9 | 8.7 | 0.00 | 0.00 | 0.00 | 41 | 1018.3 |
| 20260507181646 | 79 | 150 | 2.6 | 7.8 | 0.00 | 0.00 | 0.00 | 45 | 1018.4 |
| 20260507180645 | 78 | 234 | 2.6 | 10.4 | 0.00 | 0.00 | 0.00 | 45 | 1018.3 |
| 20260507180145 | 79 | 233 | 8.7 | 10.4 | 0.00 | 0.00 | 0.00 | 44 | 1018.4 |
| 20260507175645 | 78 | 238 | 5.2 | 8.7 | 0.00 | 0.00 | 0.00 | 46 | 1018.5 |
| 20260507175146 | 78 | 190 | 2.6 | 9.6 | 0.00 | 0.00 | 0.00 | 47 | 1018.6 |
| 20260507174646 | 77 | 213 | 1.7 | 9.6 | 0.00 | 0.00 | 0.00 | 47 | 1018.6 |
| 20260507173145 | 77 | 244 | 7.0 | 8.7 | 0.00 | 0.00 | 0.00 | 46 | 1018.6 |
| 20260507172146 | 77 | 220 | 6.1 | 7.8 | 0.00 | 0.00 | 0.00 | 45 | 1018.7 |
| 20260507171645 | 76 | 232 | 1.7 | 7.0 | 0.00 | 0.00 | 0.00 | 47 | 1018.4 |
| 20260507171145 | 76 | 186 | 1.7 | 4.3 | 0.00 | 0.00 | 0.00 | 44 | 1018.4 |
| 20260507170645 | 75 | 190 | 0.9 | 4.3 | 0.00 | 0.00 | 0.00 | 47 | 1018.6 |
| 20260507170145 | 75 | 234 | 1.7 | 6.1 | 0.00 | 0.00 | 0.00 | 46 | 1018.5 |
| 20260507165645 | 75 | 202 | 0.9 | 6.1 | 0.00 | 0.00 | 0.00 | 45 | 1018.5 |
| 20260507165145 | 75 | 229 | 0.0 | 5.2 | 0.00 | 0.00 | 0.00 | 48 | 1018.7 |
| 20260507164645 | 75 | 229 | 1.7 | 5.2 | 0.00 | 0.00 | 0.00 | 47 | 1018.8 |
| 20260507164145 | 74 | 182 | 1.7 | 7.0 | 0.00 | 0.00 | 0.00 | 46 | 1018.7 |
| 20260507163145 | 74 | 200 | 1.7 | 7.0 | 0.00 | 0.00 | 0.00 | 46 | 1018.8 |
| 20260507162644 | 74 | 227 | 1.7 | 7.0 | 0.00 | 0.00 | 0.00 | 46 | 1018.7 |
| 20260507162145 | 74 | 231 | 5.2 | 5.2 | 0.00 | 0.00 | 0.00 | 46 | 1018.7 |
| 20260507161644 | 74 | 194 | 0.0 | 5.2 | 0.00 | 0.00 | 0.00 | 46 | 1018.7 |
| 20260507161144 | 74 | 244 | 0.0 | 5.2 | 0.00 | 0.00 | 0.00 | 43 | 1018.7 |
| 20260507160645 | 73 | 227 | 0.0 | 5.2 | 0.00 | 0.00 | 0.00 | 47 | 1018.5 |
| 20260507160145 | 73 | 248 | 3.5 | 4.3 | 0.00 | 0.00 | 0.00 | 46 | 1018.6 |
| 20260507155644 | 72 | 215 | 0.9 | 3.5 | 0.00 | 0.00 | 0.00 | 46 | 1018.7 |
| 20260507155144 | 72 | 151 | 0.9 | 1.7 | 0.00 | 0.00 | 0.00 | 47 | 1018.7 |
| 20260507154644 | 71 | 137 | 0.0 | 0.9 | 0.00 | 0.00 | 0.00 | 49 | 1018.6 |
| 20260507154144 | 71 | 137 | 0.0 | 2.6 | 0.00 | 0.00 | 0.00 | 50 | 1018.7 |
| 20260507153644 | 70 | 136 | 0.0 | 2.6 | 0.00 | 0.00 | 0.00 | 51 | 1018.7 |
| 20260507152644 | 68 | 129 | 0.0 | 1.7 | 0.00 | 0.00 | 0.00 | 52 | 1018.3 |
| 20260507152144 | 67 | 71 | 0.0 | 0.0 | 0.00 | 0.00 | 0.00 | 51 | 1018.1 |
| 20260507151644 | 66 | 71 | 0.0 | 0.0 | 0.00 | 0.00 | 0.00 | 62 | 1018.2 |
| 20260507151144 | 66 | 71 | 0.0 | 0.0 | 0.00 | 0.00 | 0.00 | 62 | 1018.2 |
| 20260507150644 | 65 | 71 | 0.0 | 0.0 | 0.00 | 0.00 | 0.00 | 72 | 1018.0 |
| 20260507145144 | 61 | 71 | 0.0 | 2.6 | 0.00 | 0.00 | 0.00 | 69 | 1018.1 |
| 20260507144644 | 60 | 74 | 0.9 | 4.3 | 0.00 | 0.00 | 0.00 | 68 | 1018.0 |
| 20260507144143 | 59 | 57 | 0.9 | 4.3 | 0.00 | 0.00 | 0.00 | 71 | 1017.9 |
| 20260507143644 | 58 | 76 | 2.6 | 4.3 | 0.00 | 0.00 | 0.00 | 72 | 1017.8 |
| 20260507143143 | 57 | 71 | 2.6 | 4.3 | 0.00 | 0.00 | 0.00 | 75 | 1017.6 |
| 20260507142643 | 56 | 65 | 2.6 | 4.3 | 0.00 | 0.00 | 0.00 | 76 | 1017.6 |
| 20260507142143 | 54 | 46 | 1.7 | 5.2 | 0.00 | 0.00 | 0.00 | 78 | 1017.3 |
| 20260507141643 | 53 | 67 | 2.6 | 5.2 | 0.00 | 0.00 | 0.00 | 77 | 1017.1 |
| 20260507141143 | 52 | 61 | 4.3 | 7.0 | 0.00 | 0.00 | 0.00 | 79 | 1017.1 |
| 20260507140143 | 50 | 34 | 4.3 | 5.2 | 0.00 | 0.00 | 0.00 | 79 | 1016.8 |
| 20260507135643 | 49 | 61 | 5.2 | 7.0 | 0.00 | 0.00 | 0.00 | 80 | 1017.1 |
| 20260507135143 | 49 | 62 | 3.5 | 7.0 | 0.00 | 0.00 | 0.00 | 81 | 1017.1 |
| 20260507134643 | 48 | 48 | 3.5 | 6.1 | 0.00 | 0.00 | 0.00 | 82 | 1017.2 |
| 20260507134142 | 47 | 53 | 3.5 | 6.1 | 0.00 | 0.00 | 0.00 | 83 | 1016.9 |
| 20260507133643 | 46 | 44 | 5.2 | 6.1 | 0.00 | 0.00 | 0.00 | 83 | 1016.9 |
| 20260507133143 | 46 | 65 | 4.3 | 5.2 | 0.00 | 0.00 | 0.00 | 82 | 1016.9 |
| 20260507132643 | 46 | 50 | 5.2 | 6.1 | 0.00 | 0.00 | 0.00 | 82 | 1016.9 |
| 20260507132143 | 46 | 32 | 3.5 | 7.8 | 0.00 | 0.00 | 0.00 | 82 | 1016.8 |
| 20260507131643 | 46 | 56 | 4.3 | 7.8 | 0.00 | 0.00 | 0.00 | 82 | 1016.9 |
| 20260507131143 | 45 | 40 | 4.3 | 5.2 | 0.00 | 0.00 | 0.00 | 82 | 1016.5 |
| 20260507130643 | 45 | 65 | 3.5 | 6.1 | 0.00 | 0.00 | 0.00 | 82 | 1016.3 |
| 20260507130143 | 45 | 65 | 3.5 | 6.1 | 0.00 | 0.00 | 0.00 | 82 | 1016.3 |
| 20260507125643 | 45 | 57 | 4.3 | 6.1 | 0.00 | 0.00 | 0.00 | 83 | 1016.8 |
| 20260507125143 | 45 | 46 | 5.2 | 7.0 | 0.00 | 0.00 | 0.00 | 83 | 1016.8 |
| 20260507124642 | 45 | 43 | 3.5 | 7.0 | 0.00 | 0.00 | 0.00 | 83 | 1016.8 |
| 20260507124142 | 45 | 56 | 3.5 | 5.2 | 0.00 | 0.00 | 0.00 | 83 | 1016.8 |
| 20260507123642 | 45 | 57 | 3.5 | 4.3 | 0.00 | 0.00 | 0.00 | 83 | 1016.8 |
| 20260507123142 | 45 | 65 | 3.5 | 6.1 | 0.00 | 0.00 | 0.00 | 83 | 1016.8 |
| 20260507122642 | 46 | 65 | 4.3 | 6.1 | 0.00 | 0.00 | 0.00 | 83 | 1017.0 |
| 20260507122142 | 46 | 60 | 3.5 | 6.1 | 0.00 | 0.00 | 0.00 | 83 | 1017.0 |
| 20260507121142 | 45 | 38 | 3.5 | 5.2 | 0.00 | 0.00 | 0.00 | 83 | 1016.8 |
| 20260507120642 | 45 | 57 | 2.6 | 4.3 | 0.00 | 0.00 | 0.00 | 84 | 1016.8 |
| 20260507120142 | 45 | 63 | 3.5 | 6.1 | 0.00 | 0.00 | 0.00 | 84 | 1016.7 |
| 20260507115141 | 45 | 57 | 3.5 | 7.0 | 0.00 | 0.00 | 0.00 | 84 | 1017.2 |
| 20260507114642 | 45 | 62 | 4.3 | 7.0 | 0.00 | 0.00 | 0.00 | 84 | 1017.1 |
| 20260507114141 | 45 | 48 | 5.2 | 7.0 | 0.00 | 0.00 | 0.00 | 84 | 1017.2 |
| 20260507113642 | 45 | 47 | 4.3 | 5.2 | 0.00 | 0.00 | 0.00 | 84 | 1017.2 |
| 20260507112641 | 45 | 46 | 4.3 | 7.0 | 0.00 | 0.00 | 0.00 | 85 | 1017.3 |
| 20260507111641 | 45 | 47 | 2.6 | 7.0 | 0.00 | 0.00 | 0.00 | 86 | 1017.3 |
| 20260507111141 | 45 | 75 | 4.3 | 7.0 | 0.00 | 0.00 | 0.00 | 86 | 1017.3 |
| 20260507110641 | 45 | 71 | 1.7 | 7.0 | 0.00 | 0.00 | 0.00 | 87 | 1017.5 |
| 20260507105641 | 44 | 55 | 4.3 | 6.1 | 0.00 | 0.00 | 0.00 | 87 | 1017.7 |
| 20260507105141 | 44 | 30 | 5.2 | 6.1 | 0.00 | 0.00 | 0.00 | 87 | 1017.7 |
| 20260507104641 | 44 | 43 | 4.3 | 7.0 | 0.00 | 0.00 | 0.00 | 87 | 1017.7 |
| 20260507104141 | 44 | 69 | 3.5 | 7.8 | 0.00 | 0.00 | 0.00 | 88 | 1017.7 |
| 20260507103641 | 44 | 41 | 3.5 | 7.8 | 0.00 | 0.00 | 0.00 | 88 | 1017.7 |
| 20260507103141 | 44 | 41 | 5.2 | 7.0 | 0.00 | 0.00 | 0.00 | 88 | 1017.8 |
| 20260507102141 | 44 | 57 | 3.5 | 6.1 | 0.00 | 0.00 | 0.00 | 88 | 1017.9 |
| 20260507101641 | 44 | 68 | 3.5 | 5.2 | 0.00 | 0.00 | 0.00 | 89 | 1017.8 |
| 20260507101140 | 44 | 74 | 3.5 | 5.2 | 0.00 | 0.00 | 0.00 | 89 | 1017.8 |
| 20260507100641 | 44 | 71 | 3.5 | 6.1 | 0.00 | 0.00 | 0.00 | 89 | 1017.7 |
| 20260507100141 | 44 | 54 | 3.5 | 6.1 | 0.00 | 0.00 | 0.00 | 90 | 1017.8 |
| 20260507095640 | 44 | 63 | 4.3 | 7.8 | 0.00 | 0.00 | 0.00 | 90 | 1017.9 |
| 20260507095141 | 44 | 49 | 3.5 | 7.8 | 0.00 | 0.00 | 0.00 | 90 | 1017.9 |
| 20260507094641 | 44 | 51 | 3.5 | 7.0 | 0.00 | 0.00 | 0.00 | 90 | 1018.0 |
| 20260507094140 | 44 | 40 | 4.3 | 5.2 | 0.00 | 0.00 | 0.00 | 90 | 1018.0 |
| 20260507093640 | 44 | 30 | 2.6 | 5.2 | 0.00 | 0.00 | 0.00 | 90 | 1018.1 |
| 20260507093141 | 44 | 34 | 4.3 | 6.1 | 0.00 | 0.00 | 0.00 | 90 | 1018.2 |
| 20260507092641 | 44 | 66 | 3.5 | 6.1 | 0.00 | 0.00 | 0.00 | 89 | 1018.2 |
| 20260507092140 | 44 | 60 | 3.5 | 6.1 | 0.00 | 0.00 | 0.00 | 89 | 1018.2 |
| 20260507090640 | 44 | 42 | 3.5 | 5.2 | 0.00 | 0.00 | 0.00 | 90 | 1018.5 |
| 20260507090140 | 44 | 48 | 3.5 | 5.2 | 0.00 | 0.00 | 0.00 | 90 | 1018.6 |
| 20260507085640 | 44 | 63 | 3.5 | 5.2 | 0.00 | 0.00 | 0.00 | 90 | 1018.7 |
| 20260507085140 | 44 | 47 | 2.6 | 6.1 | 0.00 | 0.00 | 0.00 | 90 | 1018.6 |
| 20260507084640 | 44 | 32 | 3.5 | 6.1 | 0.00 | 0.00 | 0.00 | 90 | 1018.7 |
| 20260507084140 | 44 | 42 | 5.2 | 6.1 | 0.00 | 0.00 | 0.00 | 90 | 1018.7 |
| 20260507083640 | 44 | 28 | 4.3 | 6.1 | 0.00 | 0.00 | 0.00 | 90 | 1018.7 |
| 20260507083140 | 45 | 54 | 3.5 | 6.1 | 0.00 | 0.00 | 0.00 | 90 | 1018.8 |
| 20260507082639 | 45 | 67 | 3.5 | 6.1 | 0.00 | 0.00 | 0.00 | 90 | 1018.8 |
| 20260507081640 | 45 | 53 | 2.6 | 5.2 | 0.00 | 0.00 | 0.00 | 90 | 1018.9 |
| 20260507080639 | 45 | 58 | 3.5 | 5.2 | 0.00 | 0.00 | 0.00 | 90 | 1018.9 |
| 20260507080139 | 45 | 43 | 3.5 | 5.2 | 0.00 | 0.00 | 0.00 | 90 | 1018.9 |
| 20260507075639 | 45 | 21 | 4.3 | 5.2 | 0.00 | 0.00 | 0.00 | 90 | 1018.6 |
| 20260507075139 | 45 | 25 | 3.5 | 5.2 | 0.00 | 0.00 | 0.00 | 90 | 1018.6 |
| 20260507074639 | 45 | 40 | 4.3 | 5.2 | 0.00 | 0.00 | 0.00 | 90 | 1018.5 |
| 20260507074139 | 45 | 49 | 4.3 | 6.1 | 0.00 | 0.00 | 0.00 | 90 | 1018.6 |
| 20260507073639 | 45 | 61 | 3.5 | 6.1 | 0.00 | 0.00 | 0.00 | 90 | 1018.6 |
| 20260507073139 | 45 | 42 | 3.5 | 6.1 | 0.00 | 0.00 | 0.00 | 90 | 1018.6 |
| 20260507072639 | 46 | 78 | 4.3 | 5.2 | 0.00 | 0.00 | 0.00 | 90 | 1018.8 |
| 20260507071139 | 46 | 62 | 2.6 | 6.1 | 0.00 | 0.00 | 0.00 | 90 | 1019.0 |
| 20260507070138 | 46 | 64 | 2.6 | 5.2 | 0.00 | 0.00 | 0.00 | 89 | 1019.0 |
| 20260507065638 | 46 | 69 | 2.6 | 4.3 | 0.00 | 0.00 | 0.00 | 89 | 1018.6 |
| 20260507065139 | 46 | 49 | 2.6 | 4.3 | 0.00 | 0.00 | 0.00 | 89 | 1018.6 |
| 20260507064138 | 46 | 33 | 0.0 | 5.2 | 0.00 | 0.00 | 0.00 | 89 | 1018.6 |
| 20260507063638 | 47 | 44 | 3.5 | 5.2 | 0.00 | 0.00 | 0.00 | 89 | 1018.9 |
| 20260507063138 | 47 | 16 | 1.7 | 6.1 | 0.00 | 0.00 | 0.00 | 89 | 1018.8 |
| 20260507062638 | 47 | 59 | 4.3 | 6.1 | 0.00 | 0.00 | 0.00 | 89 | 1018.9 |
| 20260507062138 | 47 | 36 | 1.7 | 7.0 | 0.00 | 0.00 | 0.00 | 89 | 1019.0 |
| 20260507061638 | 47 | 31 | 5.2 | 7.0 | 0.00 | 0.00 | 0.00 | 89 | 1019.0 |
| 20260507061138 | 47 | 13 | 2.6 | 7.0 | 0.00 | 0.00 | 0.00 | 89 | 1018.9 |
| 20260507060638 | 47 | 39 | 3.5 | 5.2 | 0.00 | 0.00 | 0.00 | 89 | 1019.0 |
| 20260507060138 | 47 | 52 | 2.6 | 6.1 | 0.00 | 0.00 | 0.00 | 90 | 1018.9 |
| 20260507055638 | 47 | 32 | 4.3 | 6.1 | 0.00 | 0.00 | 0.00 | 90 | 1018.4 |
| 20260507055138 | 47 | 36 | 4.3 | 4.3 | 0.00 | 0.00 | 0.00 | 90 | 1018.4 |
| 20260507054638 | 47 | 45 | 2.6 | 4.3 | 0.00 | 0.00 | 0.00 | 89 | 1018.4 |
| 20260507054137 | 47 | 31 | 2.6 | 5.2 | 0.00 | 0.00 | 0.00 | 90 | 1018.3 |
| 20260507053638 | 48 | 44 | 2.6 | 5.2 | 0.00 | 0.00 | 0.00 | 90 | 1018.7 |
| 20260507053137 | 48 | 38 | 1.7 | 4.3 | 0.00 | 0.00 | 0.00 | 90 | 1018.6 |
| 20260507052638 | 48 | 63 | 4.3 | 4.3 | 0.00 | 0.00 | 0.00 | 90 | 1018.6 |
| 20260507051638 | 48 | 24 | 3.5 | 4.3 | 0.00 | 0.00 | 0.00 | 90 | 1018.6 |
| 20260507051137 | 48 | 40 | 2.6 | 6.1 | 0.00 | 0.00 | 0.00 | 90 | 1018.7 |
| 20260507050637 | 48 | 41 | 4.3 | 6.1 | 0.00 | 0.00 | 0.00 | 90 | 1018.7 |
| 20260507050137 | 48 | 63 | 1.7 | 5.2 | 0.00 | 0.00 | 0.00 | 90 | 1018.7 |
| 20260507045637 | 48 | 42 | 1.7 | 5.2 | 0.00 | 0.00 | 0.00 | 89 | 1018.2 |
| 20260507045137 | 48 | 68 | 2.6 | 4.3 | 0.00 | 0.00 | 0.00 | 89 | 1018.2 |
| 20260507044637 | 48 | 53 | 3.5 | 6.1 | 0.00 | 0.00 | 0.00 | 89 | 1018.4 |